Current Version              Previous Version:    01  02  03  04  05  06  07  08  09  10  11  12  13  14  15  16  17  18  19  20  21  22  23  24  25  26  27  28  29  30  
   31  32  33  34  35  36  37  38  39  40  41  42  43  44  45  46  47  48  49  50  51  52  53  54  55  56  57  58  59  60  

[Printable]
210
ASUS44 KLUB 230410
RWRTX
WEST TEXAS WEATHER ROUNDUP
NATIONAL WEATHER SERVICE LUBBOCK TX
1100 PM CDT TUE APR 22 2014

NOTE: "FAIR" INDICATES FEW OR NO CLOUDS BELOW 12,000 FEET WITH NO
SIGNIFICANT WEATHER AND/OR OBSTRUCTIONS TO VISIBILITY.

TXZ004-006>008-010-012-014-016-OKZ002-230500-
TEXAS PANHANDLE/OKLAHOMA PANHANDLE

CITY           SKY/WX    TMP DP  RH WIND       PRES   REMARKS
AMARILLO       CLEAR     66  39  37 SE16      29.93R
BORGER         CLEAR     70  40  33 S15G26    29.88S
CANADIAN       CLEAR     69  50  51 S17G23    29.89S
DALHART        PTCLDY    68  40  35 S15       29.88R
DUMAS          PTCLDY    68  37  31 S16G25    29.89R
GUYMON         PTCLDY    69  45  41 S21G31    29.82R
HEREFORD       PTCLDY    68  34  28 SE21G28   29.93S
PAMPA          CLEAR     63  49  59 S21G26    29.92S
PERRYTON       CLEAR     66  48  52 S22G31    29.87S
$$

TXZ026-029-035-045-048-230500-
SOUTHERN PANHANDLE/SOUTH PLAINS/ROLLING PLAINS

CITY           SKY/WX    TMP DP  RH WIND       PRES   REMARKS
CHILDRESS      CLEAR     67  51  56 SE15      29.93S
SEMINOLE       CLEAR     70  38  31 SE12      29.95R
LUBBOCK        CLEAR     70  35  27 SE17      29.94R
PLAINVIEW      CLEAR     65  37  35 SE13      29.94S
SNYDER         CLEAR     70  42  35 SE10      29.96S
$$

TXZ052-054-060>062-072-078-127-140-154-169-230500-
PERMIAN BASIN/CONCHO VALLEY/BIG COUNTRY/EDWARDS PLATEAU

CITY           SKY/WX    TMP DP  RH WIND       PRES   REMARKS
ABILENE        CLEAR     66  45  46 SE10      29.96S
BIG SPRING     CLEAR     74  38  27 E14       29.97R
BRADY          CLEAR     68  46  45 E5        29.98S
BROWNWOOD      PTCLDY    64  50  59 SE7       29.98R
JUNCTION       CLEAR     69  52  54 E7        29.97R
MIDLAND        CLEAR     74  42  31 SE17      29.93S
ODESSA           N/A    N/A N/A N/A MISG      29.93S
SAN ANGELO     CLEAR     71  45  39 E9        29.94S
SONORA         CLEAR     73  50  43 E9        29.96F
SWEETWATER     CLEAR     70  42  36 SE8       29.99F
WINK           CLEAR     73  49  42 SE10      29.88S
$$

TXZ055-058-074-075-080-082-230500-
FAR WEST/SOUTHWEST MOUNTAINS/TRANS PECOS

CITY           SKY/WX    TMP DP  RH WIND       PRES   REMARKS
ALPINE         CLEAR     71  42  35 SE15G23   30.03S
DRYDEN           N/A     81  48  31 SE12      29.90S
EL PASO        CLOUDY    81  34  18 S13G18    29.84R
FORT STOCKTON  CLEAR     74  44  34 SE14      29.92R
GUADALUPE PASS PTCLDY    65  42  43 NE28      29.99F
MARFA          CLEAR     68  39  34 E18       30.02R
PECOS          CLEAR     65  53  63 SE8       29.88R
PRESIDIO       FAIR      82  44  25 NE15G23   29.85R
$$

TXZ014-016-019-021>030-083-230500
TEXAS TECH WEST TEXAS MESONET/TEXAS PANHANDLE/NORTHERN SOUTH PLAINS

CITY           SKY/WX    TMP DP  RH WIND       PRES   REMARKS
ABERNATHY 5ENE   N/A     66  35  31 SE16      29.95F
AMARILLO 9NNE    N/A     69  38  32 SE22      29.89F
AMARILLO 7SSE    N/A     68  36  30 SE16      29.94S
AMHERST 1NE      N/A     69  35  29 SE15      29.94S
BOOTLEG 11WNW    N/A     65  38  36 S16       29.95S
CANADIAN 6E      N/A     67  49  54 SE13      29.90S
CAPROCK CYN SP   N/A     66  42  41 S8        29.94S
CHILDRESS 2NNE   N/A     65  53  65 SE15      29.92F
CLARENDON 2WSW   N/A     68  45  43 SE16      29.94R
CLAUDE 12SW      N/A     67  43  41 SE13      29.94S
DIMMITT 2NE      N/A     65  35  33 SE20      29.94S
FLOYDADA 2NNE    N/A     65  34  31 SE12      29.95S
FRIONA 2NE       N/A     65  36  34 SE14      29.94S
GOODLETT 3W      N/A     65  53  65 E8        29.92S
HART 3N          N/A     62  37  39 SE14      29.94F
HEREFORD 2NW     N/A     66  34  30 SE16      29.93R
MCLEAN 1E        N/A     64  49  58 SE15      29.93R
MEMPHIS 1NE      N/A     67  50  54 SE10      29.92S
MULESHOE 2SSW    N/A     69  36  30 SE15      29.93S
OLTON 6S         N/A     65  34  32 SE13      29.95R
PALO DURO SP     N/A     69  37  30 SE16      29.95S
PAMPA 2E         N/A     62  50  65 SE15      29.93S
PLAINVIEW 1S     N/A     66  37  34 SE10      29.95R
SILVERTON 7ESE   N/A     65  41  42 SE14      29.95S
TULIA 2ENE       N/A     64  36  36 SE14      29.94F
TURKEY 2WSW      N/A     68  43  39 SE15      29.92S
UMBARGER 3NNE    N/A     67  36  31 SE22      29.93S
$$

TXZ033>036-039>041-045>048-230500
TEXAS TECH WEST TEXAS MESONET/SOUTH PLAINS

CITY           SKY/WX    TMP DP  RH WIND       PRES   REMARKS
AIKEN 3WSW       N/A     63  40  41 SE13      29.96S
ANDREWS 2NE      N/A     71  38  29 SE10      29.94S
ANTON 6SSW       N/A     67  38  34 SE13      29.94S
BROWNFIELD 2S    N/A     67  37  33 SE14      29.95S
DENVR CTY 7WNW   N/A     67  37  33 SE10      29.94S
GAIL 2ESE        N/A     70  38  31 SE9       29.94R
LAMESA 2SE       N/A     68  37  31 SE10      29.95R
LEVELLAND 4S     N/A     67  38  33 SE13      29.95R
LUBBOCK 3WNW     N/A     70  36  29 SE13      29.95S
MORTON 1ENE      N/A     68  37  31 SE14      29.93F
ODONNELL 1N      N/A     70  35  28 SE13      29.95S
PLAINS 3N        N/A     67  39  35 SE14      29.94S
RALLS 1SE        N/A     67  36  31 SE15      29.96S
REESE CENTER     N/A     69  35  28 SE17      29.94S
SEAGRAVES 1SW    N/A     69  40  35 SE12      29.94S
SEMINOLE 2NNE    N/A     68  39  33 SE12      29.94R
SLATON 2NE       N/A     67  34  30 SE13      29.95S
SNYDER 3E        N/A     69  40  35 SE14      29.94F
SUNDOWN 8SW      N/A     68  38  33 SE15      29.94S
TAHOKA 3NNE      N/A     67  35  31 SE12      29.94S
WOLFFORTH 6SSW   N/A     68  38  34 SE13      29.95S
$$

TXZ031-032-036>038-042>044-230500-
TEXAS TECH WEST TEXAS MESONET/ROLLING PLAINS

CITY           SKY/WX    TMP DP  RH WIND       PRES   REMARKS
ASPERMONT 3NE    N/A     71  43  36 SE8       29.94S
FLUVANNA 3WNW    N/A     70  38  30 SE15      29.95S
GRAHAM 5SSW      N/A     69  35  29 SE14      29.95S
GUTHRIE 10WSW    N/A     69  42  37 SE12      29.93S
HASKELL 1NW      N/A     70  44  39 SE9       29.94S
JAYTON 1SSE      N/A     68  39  34 SE9       29.93S
KNOX CITY 3NW    N/A     69  46  44 SE10      29.94S
LK A HENRY 1NW   N/A     69  40  34 SE6       29.93S
NORTHFIELD 1S    N/A     70  45  40 SE14      29.92R
ODELL 4ENE       N/A     67  53  62 E12       29.94S
PADUCAH 10SW     N/A     67  49  52 SE10      29.93S
POST 1NE         N/A     66  35  30 S5        29.94S
SEYMOUR 3NW      N/A     63  53  70 SE7       29.94R
SPUR 1W          N/A     68  37  31 SE7       29.93S
WEINERT 2NNE     N/A     67  48  51 SE7       29.94S
WHITE RVR 6NE    N/A     69  36  29 SE10      29.94S
$$

TXZ052-054-060>062-072-078-127-140-154-169-230500-
TEXAS TECH WEST TEXAS MESONET/PERMIAN BASIN/
CONCHO VALLEY/BIG COUNTRY/EDWARDS PLATEAU

CITY           SKY/WX    TMP DP  RH WIND       PRES   REMARKS
COYANOSA 2N      N/A     76  46  34 SE12      29.89S
JUNCTION 1SSW    N/A     72  52  50 E3        29.97F
MERTZON 3NNE     N/A     73  49  42 SE9       29.96S
SAN ANGELO 7NW   N/A     71  45  39 E9        29.95S
STRLNG CT 4WSW   N/A     71  44  37 E9        29.96S
ST LAWRNCE 5SW   N/A     70  39  31 E15       29.95S
SWEETWATR 11SW   N/A     69  44  40 SE10      29.97F
WALL 1E          N/A     70  45  40 E10       29.96S
$$

TXZ055-058-074-075-080-082-230500-
TEXAS TECH WEST TEXAS MESONET/FAR WEST/SOUTHWEST MOUNTAINS/TRANS PECOS

CITY           SKY/WX    TMP DP  RH WIND       PRES   REMARKS
PRSMN GAP BBNP   N/A     78  48  33 NE9       29.90R
GUADLPE MTN NP   N/A     65  41  41 N3        30.05S
$$